Location: Pic du Midi - T1M
(42.9366°N, 0.1426°E)
Time: 17:40:51
(UTC+01:00)

Nauka - Pass Details

Date: 02 October 2021
Orbit: 417 x 423 km, 51.6° (Epoch: 24 October)

Event Time Altitude Azimuth Distance (km) Brightness Sun altitude
Rises 20:04:27 0° 304° (NW) 2,358 ? -16.5°
Reaches altitude 10° 20:06:34 10° 307° (NW) 1,493 ? -16.8°
Maximum altitude 20:09:54 66° 31° (NNE) 459 ? -17.4°
Enters shadow 20:10:28 53° 84° (E) 518 ? -17.6°
